Chadron, NE

11:24 AM MDT on July 24, 2016 (GMT -0600)
Chadron Municipal

Weather History for KCDR - September, 2013

Change the Weather History Date:

Monday, September 16, 2013

  Actual Average Record
Temperature  
Mean Temperature 60 °F 61 °F  
Max Temperature 70 °F 78 °F 97 °F (2000)
Min Temperature 50 °F 44 °F 29 °F (1965)
Degree Days  
Heating Degree Days 5 6  
Month to date heating degree days 12 60  
Since 1 July heating degree days 12 90  
Cooling Degree Days 0 2  
Month to date cooling degree days 121 50  
Year to date cooling degree days 889 697  
Growing Degree Days 10 (Base 50)    
Moisture  
Dew Point 53 °F    
Average Humidity 78    
Maximum Humidity 96    
Minimum Humidity 59    
Precipitation  
Precipitation 0.00 in 0.06 in 0.78 in (1965)
Month to date precipitation 0.67 0.95  
Year to date precipitation 13.03 14.82  
Sea Level Pressure  
Sea Level Pressure 30.10 in    
Wind  
Wind Speed 14 mph (South)    
Max Wind Speed 29 mph    
Max Gust Speed 33 mph    
Visibility 10 miles    
Events      
T = Trace of Precipitation, MM = Missing Value Source: NWS Daily Summary

Daily Weather History Graph

Daily Weather History Graph

Search for Another Location

Airport or City:

Trip Planner

Search our weather history database for the weather conditions in past years. The results will help you decide how hot, cold, wet, or windy it might be!

Date:

Astronomy

Sep. 16, 2013 Rise Set
Actual Time 6:33 AM MDT 6:59 PM MDT
Civil Twilight 6:05 AM MDT 7:28 PM MDT
Nautical Twilight 5:31 AM MDT 8:01 PM MDT
Astronomical Twilight 4:57 AM MDT 8:35 PM MDT
Moon 5:13 PM MDT (9/16) 3:18 AM MDT (9/16)
Length of Visible Light 13h 23m
Length of Day
12h 26m
Waxing Gibbous, 90% of the Moon is Illuminated
Sep 16
Waxing Gibbous
Sep 19
Full
Sep 26
Last Quarter
Oct 4
New
Oct 11
First Quarter

Hourly Weather History & Observations

Time (MDT) Temp. Dew Point Humidity Pressure Visibility Wind Dir Wind Speed Gust Speed Precip Events Conditions
12:53 AM 52.0 °F 50.0 °F 93% 30.26 in 10.0 mi SSE 8.1 mph - N/A   Clear
1:53 AM 52.0 °F 50.0 °F 93% 30.25 in 10.0 mi South 6.9 mph - N/A   Clear
2:53 AM 52.0 °F 50.0 °F 93% 30.24 in 10.0 mi SSE 6.9 mph - N/A   Scattered Clouds
3:53 AM 51.1 °F 48.9 °F 92% 30.22 in 10.0 mi South 6.9 mph - N/A   Partly Cloudy
4:53 AM 54.0 °F 51.1 °F 90% 30.21 in 10.0 mi SSE 11.5 mph - N/A   Overcast
5:53 AM 55.9 °F 51.1 °F 84% 30.20 in 10.0 mi South 12.7 mph - N/A   Unknown
7:53 AM 57.0 °F 52.0 °F 83% 30.21 in 10.0 mi South 18.4 mph - N/A   Overcast
8:36 AM 59.0 °F 51.8 °F 77% 30.21 in 10.0 mi South 20.7 mph 27.6 mph N/A   Overcast
8:53 AM 57.9 °F 52.0 °F 81% 30.21 in 10.0 mi South 17.3 mph 29.9 mph N/A   Overcast
9:53 AM 59.0 °F 52.0 °F 78% 30.20 in 10.0 mi South 18.4 mph 25.3 mph N/A   Overcast
10:35 AM 60.8 °F 51.8 °F 72% 30.20 in 10.0 mi South 18.4 mph 24.2 mph N/A   Overcast
10:53 AM 60.1 °F 52.0 °F 75% 30.19 in 10.0 mi South 16.1 mph 25.3 mph N/A   Overcast
11:53 AM 63.0 °F 53.1 °F 70% 30.16 in 10.0 mi South 16.1 mph 24.2 mph N/A   Overcast
12:53 PM 62.1 °F 53.1 °F 72% 30.14 in 10.0 mi South 18.4 mph 24.2 mph N/A   Overcast
1:53 PM 66.0 °F 54.0 °F 65% 30.08 in 10.0 mi South 16.1 mph 26.5 mph N/A   Overcast
2:53 PM 66.9 °F 54.0 °F 63% 30.05 in 10.0 mi South 21.9 mph 29.9 mph N/A   Scattered Clouds
3:53 PM 69.1 °F 55.0 °F 61% 30.01 in 10.0 mi South 21.9 mph 29.9 mph N/A   Partly Cloudy
4:53 PM 68.0 °F 54.0 °F 61% 29.99 in 10.0 mi South 24.2 mph 31.1 mph N/A   Clear
5:53 PM 66.0 °F 54.0 °F 65% 29.98 in 10.0 mi South 18.4 mph 25.3 mph N/A   Clear
6:53 PM 63.0 °F 54.0 °F 72% 29.98 in 10.0 mi South 10.4 mph - N/A   Clear
7:53 PM 61.0 °F 54.0 °F 78% 29.98 in 10.0 mi South 12.7 mph 19.6 mph N/A   Clear
8:45 PM 60.8 °F 55.4 °F 82% 30.00 in 10.0 mi South 11.5 mph 19.6 mph N/A   Mostly Cloudy
8:53 PM 61.0 °F 55.0 °F 81% 29.98 in 10.0 mi South 15.0 mph 21.9 mph N/A   Mostly Cloudy
9:40 PM 60.8 °F 55.4 °F 82% 29.99 in 10.0 mi South 15.0 mph 21.9 mph N/A   Scattered Clouds
9:53 PM 61.0 °F 55.0 °F 81% 29.97 in 10.0 mi South 13.8 mph - N/A   Clear
10:53 PM 61.0 °F 55.0 °F 81% 29.94 in 10.0 mi SSW 8.1 mph - N/A   Clear
11:53 PM 60.1 °F 55.0 °F 83% 29.92 in 10.0 mi SSW 6.9 mph - N/A   Clear